This is the latest recevied weather packets stored in our database for station/object KI4MRC. If no packets are shown the sender has not sent any weather packets the latest 10 day(s).
| Time | Temp. | Humidity | Pressure | Rain* | Wind** | Luminosity | Snow |
|---|---|---|---|---|---|---|---|
| 1777963517 | 21.11° C | 98% | 1013.3 hPa | 0 mm | - | 0 W/m² | - |
| 1777963215 | 21.11° C | 98% | 1013.5 hPa | 0 mm | - | 0 W/m² | - |
| 1777962912 | 21.11° C | 98% | 1013.4 hPa | 0 mm | - | 0 W/m² | - |
| 1777962608 | 21.11° C | 98% | 1013.6 hPa | 0.51 mm | - | 0 W/m² | - |
| 1777962305 | 21.11° C | 98% | 1013.7 hPa | 1.27 mm | - | 0 W/m² | - |
| 1777962002 | 21.67° C | 98% | 1013.8 hPa | 2.29 mm | - | 0 W/m² | - |
| 1777961700 | 21.67° C | 98% | 1013.7 hPa | 3.56 mm | - | 0 W/m² | - |
| 1777961397 | 21.67° C | 98% | 1013.9 hPa | 2.29 mm | - | 0 W/m² | - |
| 1777961094 | 21.67° C | 98% | 1014.1 hPa | 0.51 mm | - | 0 W/m² | - |
| 1777960790 | 21.67° C | 97% | 1014.1 hPa | 0 mm | - | 0 W/m² | - |
| 1777960486 | 21.67° C | 97% | 1014.1 hPa | 0 mm | - | 0 W/m² | - |
| 1777960183 | 21.67° C | 97% | 1014.1 hPa | 0 mm | - | 0 W/m² | - |
| 1777959881 | 21.67° C | 97% | 1013.9 hPa | 0 mm | - | 0 W/m² | - |
| 1777959579 | 21.67° C | 97% | 1014 hPa | 0 mm | - | 0 W/m² | - |
| 1777959276 | 21.67° C | 97% | 1014.3 hPa | 0 mm | - | 0 W/m² | - |
| 1777958972 | 21.67° C | 96% | 1014.3 hPa | 0 mm | - | 0 W/m² | - |
| 1777958669 | 21.67° C | 96% | 1014.4 hPa | 0 mm | - | 0 W/m² | - |
| 1777958366 | 21.67° C | 96% | 1014.6 hPa | 9.65 mm | - | 0 W/m² | - |
| 1777958063 | 21.67° C | 95% | 1014.7 hPa | 25.91 mm | - | 0 W/m² | - |
| 1777957762 | 22.22° C | 94% | 1014.7 hPa | 28.19 mm | - | 0 W/m² | - |
| 1777957460 | 22.78° C | 92% | 1015.1 hPa | 14.48 mm | - | 0 W/m² | - |
| 1777957156 | 23.33° C | 89% | 1014.9 hPa | 0.51 mm | - | 0 W/m² | - |
| 1777956853 | 23.89° C | 86% | 1014.8 hPa | 0 mm | - | 0 W/m² | - |
| 1777956550 | 23.89° C | 83% | 1014.6 hPa | 0 mm | - | 0 W/m² | - |
| 1777956247 | 23.89° C | 81% | 1014.6 hPa | 0 mm | - | 0 W/m² | - |
* Rain latest hour (hover to see other rain measurements)
** Current wind speed in m/s (hover to see current wind gust speed)